sat.trackr.live / text

‹ back to catalog

IRS-P5 (CARTOSAT-1)

NORAD 28649 · 2005-017A

PAYLOAD ACTIVE UNKNOWN

§ Identity

Operator
Country
IND
Launch date
2005-05-05
Launch site
SRILR
Launch vehicle
Mass (kg)
RCS (m²)
4.69

Purposes: earth_obs

External: N2YO · Heavens-Above · Gunter

§ Orbital elements

Epoch: 2026-09-19T07:00:28.768032Z

Period
96.56 min
Inclination
97.5291°
Eccentricity
0.0002628
Mean motion
14.91246654 rev/d
Perigee alt
592.2 km
Apogee alt
595.9 km
Semi-major
6,972.2 km
B*
7.8799e-5
RAAN
281.0901°
Arg perigee
97.6377°
Mean anomaly
262.5141°
Rev number
15,784

§ Raw data

IRS-P5 (CARTOSAT-1)1 28649U 05017A   26262.29199963  .00000731  00000+0  78799-4 0  99922 28649  97.5291 281.0901 0002628  97.6377 262.5141 14.91246654157840

JSON: /api/v1/satellites/28649 · /tle

For live sub-satellite position, see the globe view (requires WebGL).

§ Visibility from observer

Set your observer location to see the next 7 days of passes ≥ 10°. The values pass through the URL so the page stays shareable.

No JS? Fill the form by hand. The geolocation button needs JavaScript.